DW7999 Weather Reports


time (UTC)temp
C
wind
direction
speed
KPH
gust
KPH
rain 1hr
cm
rain 24hr
cm
rain mn
cm
humidity
%
barometer
mb
20260504081600 11 244 16.1 30.6 0.00 0.00 0.00 68 1007.9
20260504081556 11 207 0.0 8.0 0.00 0.00 0.00 68 1006.3
20260504081100 11 204 16.1 32.2 0.00 0.00 0.00 68 1007.8
20260504081056 11 196 1.6 6.4 0.00 0.00 0.00 69 1006.3
20260504080600 11 211 14.5 32.2 0.00 0.00 0.00 68 1007.8
20260504080555 11 226 0.0 8.0 0.00 0.00 0.00 68 1006.4
20260504070105 11 173 17.7 37.0 0.00 0.00 0.00 66 1008.4
20260504050600 11 200 14.5 37.0 0.00 0.00 0.00 67 1010.2
20260504050522 11 180 0.0 6.4 0.00 0.00 0.00 68 1008.8
20260504050021 11 209 1.6 6.4 0.00 0.00 0.00 68 1008.8
20260504045600 11 202 16.1 40.2 0.00 0.00 0.00 67 1010.3
20260504045520 11 213 0.0 6.4 0.00 0.00 0.00 67 1008.8
20260504045100 11 182 14.5 33.8 0.00 0.00 0.00 67 1010.4
20260504045021 11 194 0.0 9.7 0.00 0.00 0.00 68 1008.7
20260504044605 11 186 16.1 35.4 0.00 0.00 0.00 68 1010.4
20260504044528 11 219 0.0 9.7 0.00 0.00 0.00 68 1008.7
20260504044100 11 208 16.1 35.4 0.00 0.00 0.00 68 1010.4
20260504044018 11 200 1.6 11.3 0.00 0.00 0.00 68 1008.8
20260504043600 11 217 16.1 27.4 0.00 0.00 0.00 68 1010.4
20260504043516 11 207 0.0 11.3 0.00 0.00 0.00 69 1008.8
20260504043100 11 217 14.5 37.0 0.00 0.00 0.00 68 1010.5
20260504043024 11 197 0.0 8.0 0.00 0.00 0.00 69 1008.9
20260504042600 11 206 19.3 37.0 0.00 0.00 0.00 68 1010.5
20260504042514 11 213 1.6 8.0 0.00 0.00 0.00 68 1008.9
20260504042100 11 198 14.5 33.8 0.00 0.00 0.00 68 1010.5
20260504042014 11 209 0.0 8.0 0.00 0.00 0.00 69 1009.0
20260504041558 11 194 16.1 32.2 0.00 0.00 0.00 68 1010.6
20260504041509 11 223 1.6 9.7 0.00 0.00 0.00 69 1009.0
20260504041058 11 184 14.5 32.2 0.00 0.00 0.00 69 1010.6
20260504041009 11 162 0.0 8.0 0.00 0.00 0.00 69 1009.1
20260504040604 11 195 14.5 32.2 0.00 0.00 0.00 69 1010.7
20260504040508 11 210 0.0 8.0 0.00 0.00 0.00 69 1009.1
20260504040107 11 219 14.5 32.2 0.00 0.00 0.00 69 1010.8
20260504040016 11 174 0.0 9.7 0.00 0.00 0.00 69 1009.2
20260504035601 11 201 14.5 32.2 0.00 0.00 0.00 69 1010.8
20260504035506 11 219 0.0 8.0 0.00 0.00 0.00 69 1009.3
20260504035100 11 213 14.5 29.0 0.00 0.00 0.00 69 1010.9
20260504035012 11 181 1.6 6.4 0.00 0.00 0.00 69 1009.4
20260504034615 11 211 14.5 29.0 0.00 0.00 0.00 69 1011.0
20260504034504 11 184 0.0 9.7 0.00 0.00 0.00 70 1009.5
20260504034100 11 193 14.5 25.7 0.00 0.00 0.00 70 1011.0
20260504034003 11 171 1.6 9.7 0.00 0.00 0.00 71 1009.5
20260504033600 11 174 12.9 27.4 0.00 0.00 0.00 71 1011.0
20260504033506 11 177 1.6 12.9 0.00 0.00 0.00 71 1009.5
20260504033100 11 201 12.9 27.4 0.00 0.00 0.00 71 1011.0
20260504033003 11 165 1.6 12.9 0.00 0.00 0.00 72 1009.6
20260504032600 11 200 14.5 27.4 0.00 0.00 0.00 71 1011.1
20260504032504 11 185 0.0 6.4 0.00 0.00 0.00 72 1009.7
20260504032100 11 175 9.7 24.1 0.00 0.00 0.00 72 1011.2
20260504032004 11 163 0.0 11.3 0.00 0.00 0.00 72 1009.7
20260504031600 11 194 12.9 25.7 0.00 0.00 0.00 72 1011.2
20260504031502 11 174 0.0 11.3 0.00 0.00 0.00 73 1009.7
20260504031100 11 181 8.0 25.7 0.00 0.00 0.00 72 1011.3
20260504031003 11 173 0.0 6.4 0.00 0.00 0.00 73 1009.8
20260504030600 11 186 11.3 24.1 0.00 0.00 0.00 71 1011.4
20260504030501 11 225 0.0 4.8 0.00 0.00 0.00 71 1009.8
20260504030058 11 190 14.5 27.4 0.00 0.00 0.00 71 1011.5
20260504030001 11 173 0.0 8.0 0.00 0.00 0.00 71 1009.9
20260504025600 11 205 14.5 27.4 0.00 0.00 0.00 71 1011.5
20260504025501 11 184 0.0 8.0 0.00 0.00 0.00 71 1010.0
20260504025102 11 181 0.0 6.4 0.00 0.00 0.00 71 1010.1
20260504025100 11 180 14.5 25.7 0.00 0.00 0.00 71 1011.6
20260504024601 11 200 0.0 6.4 0.00 0.00 0.00 72 1010.1
20260504024104 11 177 0.0 3.2 0.00 0.00 0.00 71 1010.2
20260504024059 11 194 11.3 22.5 0.00 0.00 0.00 70 1011.7
20260504023600 11 165 0.0 6.4 0.00 0.00 0.00 71 1010.2
20260504023100 11 198 12.9 25.7 0.00 0.00 0.00 70 1011.7
20260504022600 11 205 0.0 4.8 0.00 0.00 0.00 71 1010.2
20260504022100 11 178 0.0 1.6 0.00 0.00 0.00 70 1010.3
20260504022059 11 188 9.7 19.3 0.00 0.00 0.00 70 1011.9
20260504021602 11 192 0.0 3.2 0.00 0.00 0.00 70 1010.3
20260504021557 11 198 9.7 24.1 0.00 0.00 0.00 69 1011.9
20260504021100 11 178 0.0 3.2 0.00 0.00 0.00 70 1010.3
20260504020602 11 207 12.9 25.7 0.00 0.00 0.00 68 1011.8
20260504020559 11 227 0.0 3.2 0.00 0.00 0.00 69 1010.3
20260504020116 11 202 0.0 9.7 0.00 0.00 0.00 69 1010.4
20260504020058 11 194 14.5 24.1 0.00 0.00 0.00 68 1011.9
20260504015600 11 208 9.7 27.4 0.00 0.00 0.00 69 1011.9
20260504015559 11 190 0.0 3.2 0.00 0.00 0.00 69 1010.4
20260504015059 11 207 12.9 27.4 0.00 0.00 0.00 68 1011.9
20260504014618 11 184 12.9 25.7 0.00 0.00 0.00 68 1011.8
20260504014605 11 204 0.0 1.6 0.00 0.00 0.00 69 1010.3
20260504014059 11 197 14.5 25.7 0.00 0.00 0.00 68 1011.9
20260504013600 11 209 6.4 20.9 0.00 0.00 0.00 68 1011.9
20260504013558 11 186 0.0 3.2 0.00 0.00 0.00 69 1010.3
20260504013106 11 173 0.0 1.6 0.00 0.00 0.00 68 1010.3
20260504013104 11 217 11.3 20.9 0.00 0.00 0.00 68 1011.8
20260504012559 11 213 0.0 1.6 0.00 0.00 0.00 68 1010.4
20260504012101 11 210 9.7 22.5 0.00 0.00 0.00 68 1011.9
20260504012058 11 211 0.0 1.6 0.00 0.00 0.00 68 1010.3
20260504011606 11 217 11.3 19.3 0.00 0.00 0.00 68 1011.9
20260504011559 11 218 0.0 1.6 0.00 0.00 0.00 68 1010.3
20260504011104 11 182 8.0 22.5 0.00 0.00 0.00 67 1011.9
20260504011100 11 162 0.0 1.6 0.00 0.00 0.00 67 1010.3
20260504010600 11 216 8.0 22.5 0.00 0.00 0.00 66 1011.9
20260504010557 11 188 0.0 1.6 0.00 0.00 0.00 67 1010.4
20260504010058 11 229 0.0 0.0 0.00 0.00 0.00 67 1010.4
20260504005600 12 229 11.3 30.6 0.00 0.00 0.00 66 1012.0
20260504005556 12 227 0.0 0.0 0.00 0.00 0.00 66 1010.3
20260504005100 12 225 9.7 30.6 0.00 0.00 0.00 66 1012.1
20260504004602 12 244 0.0 1.6 0.00 0.00 0.00 66 1010.5
20260504004558 12 212 12.9 25.7 0.00 0.00 0.00 66 1012.2
20260504004157 12 240 0.0 12.9 0.00 0.00 0.00 67 1010.5
20260504004100 12 232 12.9 25.7 0.00 0.00 0.00 66 1012.1
20260504003603 12 261 12.9 38.6 0.00 0.00 0.00 66 1012.1
20260504003555 12 237 0.0 17.7 0.00 0.00 0.00 66 1010.5
20260504003104 12 249 14.5 38.6 0.00 0.00 0.00 66 1012.2
20260504003058 12 233 0.0 8.0 0.00 0.00 0.00 67 1010.6
20260504002600 12 217 14.5 37.0 0.00 0.00 0.00 66 1012.3
20260504002100 12 232 9.7 32.2 0.00 0.00 0.00 67 1012.3
20260504002056 12 242 0.0 1.6 0.00 0.00 0.00 67 1010.7
20260504001623 12 241 12.9 32.2 0.00 0.00 0.00 67 1012.3
20260504001601 12 233 0.0 9.7 0.00 0.00 0.00 67 1010.7
20260504001100 12 236 17.7 32.2 0.00 0.00 0.00 67 1012.3
20260504001056 12 212 0.0 11.3 0.00 0.00 0.00 67 1010.7
20260504000559 12 198 12.9 30.6 0.00 0.00 0.00 67 1012.2
20260504000554 12 265 0.0 11.3 0.00 0.00 0.00 68 1010.7
20260504000058 12 269 0.0 11.3 0.00 0.00 0.00 67 1010.7
20260503235559 12 238 14.5 37.0 0.00 0.00 0.00 66 1012.2
20260503235554 12 259 1.6 12.9 0.00 0.00 0.00 66 1010.6
20260503235100 13 201 14.5 37.0 0.00 0.00 0.00 66 1012.3
20260503235054 13 217 0.0 12.9 0.00 0.00 0.00 66 1010.7
20260503234559 13 213 17.7 37.0 0.00 0.00 0.00 64 1012.2
20260503234554 13 258 6.4 20.9 0.00 0.00 0.00 65 1010.5
20260503234103 13 240 17.7 40.2 0.00 0.00 0.00 63 1012.2
20260503234054 13 232 6.4 20.9 0.00 0.00 0.00 63 1010.5
20260503233559 13 207 16.1 40.2 0.00 0.00 0.00 62 1012.1
20260503233553 13 228 4.8 16.1 0.00 0.00 0.00 62 1010.4
20260503233103 14 241 19.3 40.2 0.00 0.00 0.00 60 1012.0
20260503233053 14 207 4.8 17.7 0.00 0.00 0.00 60 1010.3
20260503232558 14 234 11.3 38.6 0.00 0.00 0.00 59 1012.0
20260503232555 14 239 3.2 16.1 0.00 0.00 0.00 59 1010.2
20260503232058 15 249 12.9 38.6 0.00 0.00 0.00 56 1011.9
20260503232053 15 277 8.0 16.1 0.00 0.00 0.00 56 1010.2
20260503231559 15 268 14.5 35.4 0.00 0.00 0.00 50 1011.8
20260503231553 15 267 8.0 14.5 0.00 0.00 0.00 51 1010.1
20260503231100 15 242 17.7 40.2 0.00 0.00 0.00 45 1011.8
20260503231053 15 238 1.6 12.9 0.00 0.00 0.00 45 1010.0
20260503230559 15 284 12.9 40.2 0.00 0.00 0.00 45 1011.7
20260503230551 15 263 1.6 12.9 0.00 0.00 0.00 46 1009.9
20260503230108 16 228 4.8 14.5 0.00 0.00 0.00 45 1010.0
20260503230100 16 217 17.7 48.3 0.00 0.00 0.00 45 1011.7
20260503225600 16 205 19.3 48.3 0.00 0.00 0.00 44 1011.8
20260503225554 16 254 3.2 11.3 0.00 0.00 0.00 44 1010.0
20260503225100 16 243 19.3 38.6 0.00 0.00 0.00 44 1011.8
20260503225051 16 234 6.4 11.3 0.00 0.00 0.00 44 1010.1
20260503224558 16 223 16.1 38.6 0.00 0.00 0.00 45 1011.8
20260503224100 16 234 16.1 33.8 0.00 0.00 0.00 45 1011.9
20260503224051 16 238 4.8 14.5 0.00 0.00 0.00 45 1010.1
20260503223600 16 209 17.7 33.8 0.00 0.00 0.00 45 1011.9
20260503223551 16 205 0.0 12.9 0.00 0.00 0.00 45 1010.1
20260503223100 16 260 19.3 32.2 0.00 0.00 0.00 45 1011.9
20260503223050 16 217 4.8 12.9 0.00 0.00 0.00 45 1010.2
20260503222559 16 232 14.5 38.6 0.00 0.00 0.00 45 1011.9
20260503222550 16 236 4.8 11.3 0.00 0.00 0.00 46 1010.1
20260503222100 16 246 11.3 38.6 0.00 0.00 0.00 45 1011.9
20260503222051 16 242 4.8 12.9 0.00 0.00 0.00 45 1010.1
20260503221558 16 217 19.3 35.4 0.00 0.00 0.00 44 1011.8
20260503221550 16 245 4.8 12.9 0.00 0.00 0.00 45 1010.2
20260503221059 16 205 16.1 46.7 0.00 0.00 0.00 45 1011.9
20260503221049 16 189 3.2 12.9 0.00 0.00 0.00 46 1010.2
20260503220602 16 209 22.5 46.7 0.00 0.00 0.00 43 1012.0
20260503220549 16 235 6.4 12.9 0.00 0.00 0.00 43 1010.2
20260503220105 16 207 16.1 49.9 0.00 0.00 0.00 44 1011.8
20260503220049 16 220 4.8 12.9 0.00 0.00 0.00 44 1010.2
20260503215558 16 215 20.9 49.9 0.00 0.00 0.00 43 1011.9
20260503215549 16 226 4.8 12.9 0.00 0.00 0.00 44 1010.3
20260503215100 17 216 14.5 37.0 0.00 0.00 0.00 43 1011.9
20260503215047 17 227 4.8 14.5 0.00 0.00 0.00 42 1010.3
20260503214602 17 242 17.7 37.0 0.00 0.00 0.00 43 1012.0
20260503214549 17 236 3.2 14.5 0.00 0.00 0.00 44 1010.3
20260503214104 16 219 16.1 37.0 0.00 0.00 0.00 42 1012.1
20260503214047 16 243 3.2 12.9 0.00 0.00 0.00 42 1010.2
20260503213603 16 235 19.3 37.0 0.00 0.00 0.00 40 1012.1
20260503213547 16 224 4.8 11.3 0.00 0.00 0.00 41 1010.4
20260503213112 17 237 20.9 41.8 0.00 0.00 0.00 41 1012.0
20260503213049 16 238 1.6 11.3 0.00 0.00 0.00 42 1010.3
20260503212600 17 240 24.1 41.8 0.00 0.00 0.00 41 1012.1
20260503212547 17 205 6.4 16.1 0.00 0.00 0.00 42 1010.3
20260503212058 17 228 22.5 43.5 0.00 0.00 0.00 43 1012.1
20260503212047 17 238 8.0 16.1 0.00 0.00 0.00 43 1010.3
20260503211604 17 242 0.0 14.5 0.00 0.00 0.00 44 1010.4
20260503211600 17 223 16.1 43.5 0.00 0.00 0.00 43 1012.2
20260503211100 17 215 22.5 43.5 0.00 0.00 0.00 40 1012.2
20260503211046 17 196 6.4 16.1 0.00 0.00 0.00 40 1010.4
20260503210600 17 232 14.5 41.8 0.00 0.00 0.00 41 1012.1
20260503210547 17 246 3.2 14.5 0.00 0.00 0.00 41 1010.5
20260503210104 17 219 22.5 57.9 0.00 0.00 0.00 42 1012.1
20260503210046 17 232 6.4 14.5 0.00 0.00 0.00 42 1010.4
20260503205600 17 220 19.3 57.9 0.00 0.00 0.00 41 1012.2
20260503205545 17 228 6.4 14.5 0.00 0.00 0.00 42 1010.5
20260503205103 17 244 20.9 57.9 0.00 0.00 0.00 41 1012.2
20260503205045 17 240 4.8 17.7 0.00 0.00 0.00 41 1010.4
20260503204608 17 213 20.9 41.8 0.00 0.00 0.00 42 1012.2
20260503204545 17 238 8.0 17.7 0.00 0.00 0.00 40 1010.5
20260503204102 17 210 22.5 43.5 0.00 0.00 0.00 42 1012.1
20260503204044 17 238 4.8 12.9 0.00 0.00 0.00 41 1010.5
20260503203559 17 243 17.7 43.5 0.00 0.00 0.00 41 1012.2
20260503203544 17 197 3.2 11.3 0.00 0.00 0.00 42 1010.6
20260503203111 17 236 20.9 45.1 0.00 0.00 0.00 41 1012.2
20260503203049 17 232 6.4 14.5 0.00 0.00 0.00 41 1010.7
20260503202600 17 198 20.9 45.1 0.00 0.00 0.00 40 1012.3
20260503202545 17 194 4.8 12.9 0.00 0.00 0.00 41 1010.8
20260503202059 17 194 19.3 35.4 0.00 0.00 0.00 42 1012.3
20260503202043 17 205 4.8 12.9 0.00 0.00 0.00 42 1010.8
20260503201606 17 238 17.7 41.8 0.00 0.00 0.00 42 1012.3
20260503201542 17 221 0.0 12.9 0.00 0.00 0.00 42 1010.8
20260503201058 17 240 16.1 41.8 0.00 0.00 0.00 42 1012.3
20260503201044 17 227 1.6 17.7 0.00 0.00 0.00 44 1010.8
20260503200602 17 196 20.9 41.8 0.00 0.00 0.00 41 1012.4
20260503200541 17 255 6.4 17.7 0.00 0.00 0.00 42 1011.0
20260503200105 17 197 19.3 43.5 0.00 0.00 0.00 42 1012.5
20260503200054 17 213 6.4 16.1 0.00 0.00 0.00 43 1010.9
20260503195559 17 225 24.1 43.5 0.00 0.00 0.00 40 1012.5
20260503195540 17 202 8.0 16.1 0.00 0.00 0.00 41 1011.0
20260503195058 17 236 20.9 43.5 0.00 0.00 0.00 40 1012.5
20260503195039 17 245 4.8 14.5 0.00 0.00 0.00 41 1011.1
20260503194558 17 228 19.3 37.0 0.00 0.00 0.00 41 1012.4
20260503194539 17 230 3.2 12.9 0.00 0.00 0.00 42 1011.0
20260503194103 17 223 17.7 35.4 0.00 0.00 0.00 41 1012.6
20260503194038 17 236 6.4 14.5 0.00 0.00 0.00 42 1011.1
20260503193558 17 209 17.7 29.0 0.00 0.00 0.00 42 1012.7
20260503193537 17 238 6.4 14.5 0.00 0.00 0.00 44 1011.2
20260503193111 17 235 16.1 35.4 0.00 0.00 0.00 40 1012.7
20260503193040 17 265 4.8 12.9 0.00 0.00 0.00 41 1011.2
20260503192559 17 217 16.1 35.4 0.00 0.00 0.00 41 1012.9
20260503192536 17 215 4.8 17.7 0.00 0.00 0.00 41 1011.4
20260503192100 17 244 16.1 32.2 0.00 0.00 0.00 42 1012.9
20260503192035 17 246 6.4 19.3 0.00 0.00 0.00 43 1011.6
20260503191608 17 238 12.9 32.2 0.00 0.00 0.00 41 1013.0
20260503191541 17 263 6.4 19.3 0.00 0.00 0.00 41 1011.5
20260503191152 17 243 6.4 14.5 0.00 0.00 0.00 39 1011.7
20260503191100 17 231 11.3 32.2 0.00 0.00 0.00 39 1013.2
20260503190559 17 220 16.1 33.8 0.00 0.00 0.00 42 1013.3
20260503190532 17 234 1.6 11.3 0.00 0.00 0.00 42 1011.8
20260503190100 17 224 17.7 33.8 0.00 0.00 0.00 41 1013.4
20260503190032 17 246 3.2 11.3 0.00 0.00 0.00 42 1011.9
20260503185559 17 218 17.7 32.2 0.00 0.00 0.00 40 1013.4
20260503185531 17 221 3.2 14.5 0.00 0.00 0.00 40 1012.0
20260503185102 17 247 14.5 37.0 0.00 0.00 0.00 44 1013.5
20260503185032 17 256 3.2 14.5 0.00 0.00 0.00 42 1012.0
20260503184939 17 229 17.7 46.7 0.00 0.00 0.00 41 1013.5
20260503184539 17 246 0.0 17.7 0.00 0.00 0.00 40 1012.0
20260503184057 17 246 19.3 46.7 0.00 0.00 0.00 40 1013.7
20260503184030 17 225 4.8 19.3 0.00 0.00 0.00 40 1012.2
20260503183559 17 242 19.3 46.7 0.00 0.00 0.00 45 1013.6
20260503183530 17 290 3.2 19.3 0.00 0.00 0.00 45 1012.1
20260503183109 17 209 19.3 46.7 0.00 0.00 0.00 43 1013.7
20260503183028 17 258 4.8 16.1 0.00 0.00 0.00 43 1012.2
20260503182603 16 190 19.3 41.8 0.00 0.00 0.00 42 1013.8
20260503182528 16 184 0.0 16.1 0.00 0.00 0.00 42 1012.3
20260503182059 17 220 8.0 41.8 0.00 0.00 0.00 45 1014.0
20260503182032 17 265 1.6 14.5 0.00 0.00 0.00 44 1012.4
20260503181611 17 226 17.7 40.2 0.00 0.00 0.00 42 1013.9
20260503181527 17 237 1.6 12.9 0.00 0.00 0.00 41 1012.4
20260503181058 17 216 17.7 40.2 0.00 0.00 0.00 42 1014.0
20260503181027 17 240 0.0 17.7 0.00 0.00 0.00 44 1012.5
20260503180559 16 238 17.7 38.6 0.00 0.00 0.00 42 1014.1
20260503180527 16 260 0.0 17.7 0.00 0.00 0.00 42 1012.5
20260503180100 17 232 22.5 38.6 0.00 0.00 0.00 40 1014.1
20260503180042 17 228 0.0 14.5 0.00 0.00 0.00 41 1012.6
20260503175601 17 221 12.9 38.6 0.00 0.00 0.00 44 1014.3
20260503175525 17 239 0.0 14.5 0.00 0.00 0.00 44 1012.7
20260503175104 17 221 12.9 38.6 0.00 0.00 0.00 42 1014.2
20260503175022 17 236 0.0 14.5 0.00 0.00 0.00 43 1012.7
20260503174603 17 264 16.1 38.6 0.00 0.00 0.00 43 1014.4
20260503174526 17 275 3.2 12.9 0.00 0.00 0.00 45 1012.9
20260503174101 16 232 19.3 32.2 0.00 0.00 0.00 44 1014.3
20260503174021 16 251 0.0 8.0 0.00 0.00 0.00 42 1012.8
20260503173600 17 219 11.3 33.8 0.00 0.00 0.00 46 1014.5
20260503173520 17 252 0.0 11.3 0.00 0.00 0.00 46 1012.9
20260503173103 16 222 12.9 33.8 0.00 0.00 0.00 46 1014.5
20260503173025 16 237 1.6 16.1 0.00 0.00 0.00 49 1012.9
20260503172600 16 227 9.7 43.5 0.00 0.00 0.00 45 1014.6
20260503172517 16 263 3.2 16.1 0.00 0.00 0.00 45 1013.0
20260503172100 16 232 17.7 43.5 0.00 0.00 0.00 46 1014.7
20260503172018 16 254 0.0 6.4 0.00 0.00 0.00 49 1013.2
20260503171559 16 207 14.5 43.5 0.00 0.00 0.00 45 1014.7
20260503171516 17 239 0.0 11.3 0.00 0.00 0.00 50 1013.1
20260503171100 16 241 9.7 30.6 0.00 0.00 0.00 49 1014.9
20260503171014 16 273 0.0 14.5 0.00 0.00 0.00 52 1013.3
20260503170558 16 218 9.7 35.4 0.00 0.00 0.00 48 1014.9
20260503170513 16 242 3.2 14.5 0.00 0.00 0.00 49 1013.4
20260503150558 13 229 11.3 27.4 0.00 0.00 0.00 57 1016.2
20260503150542 13 240 1.6 6.4 0.00 0.00 0.00 58 1014.6
20260503150126 13 234 12.9 27.4 0.00 0.00 0.00 57 1016.1
20260503150122 12 242 11.3 30.6 0.00 0.00 0.00 59 1016.3
20260503131103 8 229 12.9 25.7 0.00 0.00 0.00 63 1016.5
20260503131007 8 263 0.0 3.2 0.00 0.00 0.00 65 1015.0
20260503130557 8 218 11.3 25.7 0.00 0.00 0.00 64 1016.4
20260503130506 8 234 0.0 4.8 0.00 0.00 0.00 64 1014.9
20260503110559 3 217 8.0 14.5 0.00 0.00 0.00 74 1016.5
20260503110538 3 201 0.0 0.0 0.00 0.00 0.00 75 1015.1